Overview Statistics Trail Chart Weather Telemetry Raw packets
 

This is the latest recevied weather packets stored in our database for station/object LKLN. If no packets are shown the sender has not sent any weather packets the latest 10 day(s).

<< 3 4 5 6 7 8 9 >>
Time Temp. Humidity Pressure Rain* Wind** Luminosity Snow
1788598964 17.22° C 72% 1021 hPa - - - -
1788597765 17.22° C 72% 1021 hPa - - - -
1788597070 17.22° C 72% 1021 hPa - - - -
1788595271 16.11° C 77% 1021 hPa - - - -
1788593558 15° C 82% 1021 hPa - - - -
1788591672 13.89° C 87% 1020 hPa - - - -
1788589870 13.89° C 82% 1020 hPa - - - -
1788588164 12.78° C 87% 1020 hPa - - - -
1788586270 12.78° C 87% 1020 hPa - - - -
1788584563 12.78° C 87% 1019 hPa - - - -
1788582670 12.78° C 93% 1019 hPa - - - -
1788580871 13.89° C 87% 1019 hPa - - - -
1788579151 15° C 82% 1019 hPa - - - -
1788577273 16.11° C 87% 1019 hPa - - - -
1788575470 16.11° C 87% 1018 hPa - - - -
1788573674 17.22° C 82% 1017 hPa - - - -
1788571951 17.78° C 72% 1017 hPa - - - -
1788570161 18.89° C 63% 1016 hPa - - - -
1788568269 18.89° C 63% 1016 hPa - - - -
1788566560 18.89° C 63% 1016 hPa - - - -
1788564670 21.11° C 60% 1016 hPa - - - -
1788562961 23.89° C 53% 1014 hPa - - - -
1788561069 23.89° C 53% 1013 hPa - - - -
1788559361 23.89° C 53% 1013 hPa - - - -
1788557469 23.89° C 53% 1012 hPa - - - -

* Rain since midnight (hover to see other rain measurements)
** Current wind speed in m/s (hover to see current wind gust speed)